Home > Time Zones > World Clock > Weather > Spain > Palma > Past weeks

Flag for Spain Weather past 2 weeks in Palma, Majorca, Spain

Now
57 °F

Clear.


Feels Like: 56 °F
Forecast: 49 / 62 °F
Wind: 7 mph from East

Location: Palma De Mallorca / Son San Juan

Current Time: Apr 1, 2015 at 12:02:12 AM

Latest Report: Mar 31, 2015 at 11:30 PM


Visibility: 10 mi

Pressure: 30.24 "Hg

Humidity: 94%

Dew point: 55 °F

Location of PalmaLocation

Historic Weather in Palma — Graph

°F

Palma temperature yesterday

Maximum temperature yesterday: 79 °F (at 5:00 PM)
Minimum temperature yesterday: 48 °F (at 7:00 AM)
Average temperature yesterday: 64 °F

Past Weeks' High & Low Weather Summary

 TemperatureHumidityPressure
High79 °F (Mar 31, 5:00 PM)100% (Mar 16, 10:30 PM)30.24 "Hg (Mar 16, 10:30 PM)
Low32 °F (Mar 17, 5:30 AM)33% (Mar 30, 12:00 PM)29.47 "Hg (Mar 25, 3:00 AM)
Average57 °F78%29.95 "Hg
* Reported Mar 16 10:00 PM — Mar 31 11:00 PM, Palma, Weather by CustomWeather, © 2015

Note: Actual official high and low records may vary slightly from our data, if they occured in-between our weather recording intervals... More about our weather records

Advertising

Palma weather history for previous 24 hours

 ConditionsComfort  
Time TempWeatherWind HumidityBarometerVisibility
11:00 PM
Tue, Mar 31
57 °FClear.10 mph94%30.24 "Hg10 mi
10:30 PM55 °FClear.8 mph94%30.21 "Hg10 mi
10:00 PM57 °FClear.6 mph94%30.21 "Hg10 mi
9:30 PM59 °FClear.1 mph94%30.18 "Hg10 mi
9:00 PM63 °FSunny.2 mph83%30.18 "Hg10 mi
8:30 PM63 °FSunny.8 mph83%30.15 "Hg10 mi
8:00 PM64 °FSunny.9 mph78%30.15 "Hg10 mi
7:30 PM64 °FPassing clouds.7 mph78%30.15 "HgN/A
7:00 PM68 °FPassing clouds.13 mph69%30.15 "HgN/A
6:30 PM70 °FPassing clouds.9 mph64%30.15 "HgN/A
6:00 PM70 °FSunny.13 mph60%30.15 "Hg10 mi
5:30 PM73 °FPassing clouds.12 mph53%30.15 "HgN/A
5:00 PM79 °FSunny.14 mph34%30.15 "Hg10 mi
4:30 PM77 °FPassing clouds.14 mph42%30.15 "HgN/A
4:00 PM77 °FSunny.16 mph47%30.18 "Hg10 mi
3:30 PM77 °FSunny.15 mph44%30.18 "Hg10 mi
3:00 PM73 °FPassing clouds.10 mph61%30.18 "HgN/A
2:30 PM70 °FSunny.12 mph69%30.21 "Hg10 mi
2:00 PM73 °FPassing clouds.13 mph53%30.21 "HgN/A
1:30 PM77 °FSunny.15 mph47%30.21 "Hg10 mi
1:00 PM73 °FPassing clouds.7 mph57%30.21 "HgN/A
12:30 PM72 °FPassing clouds.8 mph53%30.21 "HgN/A
12:00 PM70 °FPassing clouds.8 mph64%30.24 "HgN/A
11:30 AM72 °FSunny.1 mph53%30.21 "Hg10 mi
11:00 AM70 °FSunny.1 mph60%30.21 "Hg10 mi
10:30 AM66 °FSunny.1 mph64%30.21 "Hg10 mi
10:00 AM63 °FSunny.1 mph73%30.21 "Hg10 mi
9:30 AM59 °FSunny.1 mph77%30.21 "Hg10 mi
9:00 AM55 °FSunny.No wind82%30.21 "Hg10 mi
8:30 AM52 °FClear.No wind88%30.18 "Hg10 mi
8:00 AM52 °FClear.No wind88%30.18 "Hg10 mi
7:30 AM50 °FClear.1 mph94%30.18 "Hg10 mi
7:00 AM48 °FClear.3 mph94%30.18 "Hg10 mi
6:30 AM52 °FPassing clouds.1 mph88%30.18 "HgN/A
6:00 AM50 °FPassing clouds.1 mph94%30.18 "HgN/A
5:30 AM52 °FPassing clouds.3 mph88%30.18 "HgN/A
4:30 AM55 °FPassing clouds.3 mph82%30.18 "HgN/A
4:00 AM54 °FClear.2 mph88%30.18 "Hg10 mi
3:30 AM55 °FClear.6 mph82%30.18 "Hg10 mi
3:00 AM57 °FPassing clouds.7 mph77%30.18 "HgN/A
2:30 AM59 °FPassing clouds.5 mph77%30.18 "HgN/A
2:00 AM63 °FPassing clouds.6 mph68%30.18 "HgN/A
1:30 AM64 °FPassing clouds.10 mph64%30.18 "HgN/A
1:00 AM64 °FPassing clouds.6 mph64%30.18 "HgN/A
12:30 AM64 °FClear.12 mph64%30.18 "Hg10 mi
12:00 AM66 °FPassing clouds.5 mph60%30.18 "HgN/A
Weather by CustomWeather, © 2015

See weather overviewHow to use our weather pages